User: anonymous   Login
Location: North Smoke Tower Site
(30.5430°N, 82.3390°W)
Time: 06:50:48
(UTC-04:00)
Language:

Cosmos 1980 Rocket - Orbit

View from above orbital plane
View from above orbital plane
View from above satellite
View from above satellite

Ground track
Ground track

The orbit data is extracted from the following two-line orbital elements,

1 19650U 88102B   17206.23301699 -.00000182 +00000-0 -68149-4 0  9994
2 19650 070.9989 295.0976 0012602 131.0775 229.1439 14.15756657481109
Epoch (UTC): 25 July 2017 05:35:32
Eccentricity: 0.0012602
inclination: 70.9989°
perigee height: 830 km
apogee height: 849 km
right ascension of ascending node: 295.0976°
argument of perigee: 131.0775°
revolutions per day: 14.15756657
mean anomaly at epoch: 229.1439°
orbit number at epoch: 48110

The dashed part of the orbit path shows where the satellite is in the earth's shadow,  

DLR